Regional Weather Roundup
Issued by NWS Kansas City/Pleasant Hill, MO

Home | Current Version | Previous Version | Graphics & Text | Print | Product List | Glossary Off
Versions: 1 2 3 4 5 6 7 8 9 10 11 12 13 14 15 16 17 18 19 20 21 22 23 24 25 26 27 28 29 30 31 32 33 34 35 36 37 38 39 40 41 42 43 44 45 46 47 48 49 50

000
ASUS43 KEAX 252211
RWREAX

WEATHER ROUNDUP FOR EASTERN KANSAS AND NORTHWEST MISSOURI
NATIONAL WEATHER SERVICE KANSAS CITY/PLEASANT HILL MO
400 PM CST SUN JAN 25 2015

KSZ040-057-103>105-MOZ028-029-037-043-252300-
...KANSAS CITY METROPOLITAN AREA...

CITY           SKY/WX    TMP DP  RH WIND       PRES   REMARKS
K.C. INTL      CLOUDY    38  32  79 N16       29.97R WCI  29
K.C. DOWNTOWN  CLOUDY    40  32  73 N15G23    29.96R WCI  32
LEES SUMMIT    CLOUDY    38  31  76 N18       29.95R WCI  28
OLATHE - IXD   CLOUDY    38  32  79 NW21G26   29.98R WCI  28
OLATHE - OJC   CLOUDY    38  32  79 N16G24    29.96R WCI  29
LAWRENCE       CLOUDY    38  32  79 N18       30.01R WCI  28

$$

MOZ001>008-011>017-020>025-030>033-038>040-044>046-053-054-252300-
...NORTHERN AND CENTRAL MISSOURI...

CITY           SKY/WX    TMP DP  RH WIND       PRES   REMARKS
ST. JOSEPH     CLOUDY    38  33  82 N18       30.01R WCI  28
MOSBY          CLOUDY    37  32  81 N20G28    29.97R WCI  27
WARRENSBURG    CLOUDY    36  32  87 NW18      29.93R WCI  25
WHITEMAN AFB   CLOUDY    36  33  87 N18G26    29.90R WCI  26
CLINTON        CLOUDY    37  34  87 N23G32    29.91R WCI  26
SEDALIA        CLOUDY    37  32  82 N23G35    29.89R WCI  26
WARSAW         NOT AVBL
MARSHALL       CLOUDY    37  34  87 N18G25    29.88R WCI  27
CHILLICOTHE      N/A     35  30  82 N13G22    29.96R WCI  26
MOBERLY        CLOUDY    34  28  80 N18G25    29.88R WCI  23
KIRKSVILLE     CLOUDY    31  29  92 N16G29    29.92R WCI  20

$$

MOZ041-047>049-056>058-063>065-088>090-097-252300-
...EASTERN AND SOUTHERN MISSOURI...

CITY           SKY/WX    TMP DP  RH WIND       PRES   REMARKS
ST. LOUIS INTL LGT RAIN  40  36  86 N18G24    29.72R FOG     WCI  31
SPIRIT OF STL  LGT RAIN  40  36  86 N14G21    29.73R WCI  32
COLUMBIA       MIX PCPN  36  35  96 N24       29.82R WCI  24
JEFFERSON CITY CLOUDY    37  34  89 N15G22    29.82R WCI  28
HANNIBAL       CLOUDY    34  30  86 N12G24    29.86R WCI  25
ROLLA          RAIN      37  35  92 NW13      29.73R WCI  29
LEBANON        MIX PCPN  37  34  87 NW15G24   29.80R WCI  28
OSAGE BEACH    CLOUDY    37  34  87 NW7G18    29.81R WCI  32
SPRINGFIELD    CLOUDY    38  34  85 NW17G29   29.86R FOG     WCI  28
BRANSON        LGT RAIN  39  32  75 NW17G26   29.86R WCI  30
NEVADA         CLOUDY    39  34  81 NW17G26   29.95R WCI  30
JOPLIN         CLOUDY    42  32  67 NW21G32   29.95R WCI  33
WEST PLAINS    CLOUDY    39  33  79 W17G25    29.77R WCI  30

$$

IAZ060-094-KSZ022-034>040-054-083-096-NEZ052-066-093-252300-
...KANSAS...SOUTHEAST NEBRASKA AND IOWA...

CITY           SKY/WX    TMP DP  RH WIND       PRES   REMARKS
TOPEKA         CLOUDY    41  31  67 NW21G26   30.04R WCI  32
MANHATTAN      CLOUDY    44  31  60 N9G18     30.05R
EMPORIA        CLOUDY    43  30  60 N17G30    30.02R
CHANUTE        CLOUDY    44  32  62 N20       30.00R
WICHITA        MOSUNNY   52  28  39 N22G31    30.03R
OMAHA          PTSUNNY   40  31  70 N16       30.04R WCI  31
LINCOLN        CLOUDY    40  31  70 N14       30.08R WCI  32
FALLS CITY     CLOUDY    40  31  70 N13G20    30.02R WCI  32
LAMONI         CLOUDY    34  31  88 N14       29.96R WCI  25
DES MOINES     CLOUDY    35  28  75 N13       30.00R WCI  26

$$



USA.gov is the U.S. government's official web portal to all federal, state and local government web resources and services.